Temperature
21 20 20 20 25 28 28 28 29 28 28 27 26 27 27 26 26 24 21 20 20 20 19 20 19 19 19 19 19 19 19 19 19 19 19 19 19 19 19 19 19 19 19 19 19 19 18 19 19
20 20 20 23 28 28 28 28 28 28 27 26 26 26 26 25 23 22 21 20 20 20 19 19 20 19 19 19 19 19 19 19 19 19 19 19 19 19 19 19 19 19 19 19 19 19 18 19 19
20 20 23 27 28 28 28 28 28 28 27 27 26 26 25 24 22 21 20 20 20 20 19 19 20 20 19 19 19 19 19 19 19 19 19 19 19 19 19 19 19 19 19 19 19 19 19 19 19
20 22 25 28 28 29 29 29 29 28 27 27 27 26 24 22 22 21 20 20 20 20 19 19 20 20 19 19 19 19 19 19 19 19 19 19 19 19 19 19 19 19 19 19 19 19 19 19 19
21 25 28 29 29 29 29 29 28 29 28 27 27 26 23 21 21 21 20 20 20 20 20 19 20 20 19 19 19 19 19 19 19 19 19 19 19 19 19 19 19 19 19 19 19 19 18 19 19
24 27 28 28 29 29 29 28 29 29 28 27 26 26 23 21 21 21 21 20 20 20 20 19 20 20 19 19 19 19 19 19 19 19 19 19 19 19 19 19 19 19 18 18 18 18 18 18 18
26 28 29 29 29 29 29 29 29 29 28 27 27 26 24 22 21 21 21 20 20 20 20 19 19 19 20 19 19 19 19 19 19 19 19 19 19 19 19 19 19 18 18 18 18 18 18 18 18
25 29 29 30 29 29 29 29 28 28 28 26 26 26 25 22 21 21 21 20 20 20 20 19 19 19 19 19 19 19 19 19 19 19 19 19 19 19 19 18 18 18 18 18 18 18 18 18 18
26 29 30 30 30 30 30 29 28 27 27 26 25 25 24 22 21 21 21 20 20 20 20 20 19 19 19 19 19 19 19 19 19 19 19 19 18 18 18 18 18 18 18 18 18 18 18 18 18
28 30 30 30 31 30 29 29 28 28 28 27 25 24 23 22 22 22 22 21 21 20 20 20 20 19 19 19 19 19 18 18 18 18 18 18 18 18 18 18 18 18 18 18 18 18 18 18 18
29 30 30 30 30 30 29 29 29 29 29 27 26 24 23 22 22 22 22 22 21 20 20 20 20 19 19 19 19 19 19 18 18 18 18 18 18 18 18 18 18 18 18 18 18 18 18 18 18
30 30 30 30 29 29 29 29 29 28 28 27 26 24 23 23 23 23 22 22 21 21 20 20 20 20 19 19 19 19 19 19 19 18 18 18 18 18 18 18 18 18 18 18 18 18 18 18 18
30 30 29 29 29 29 29 29 29 28 27 26 25 24 24 24 23 22 22 22 21 21 20 20 20 20 20 20 19 19 19 19 19 18 18 18 18 18 18 18 18 18 18 18 18 18 18 18 18
30 30 30 30 30 29 29 29 29 28 27 26 25 25 24 24 23 23 22 21 21 21 20 20 20 20 20 20 20 19 19 19 19 19 18 18 18 18 18 18 19 18 18 18 18 18 18 18 18
30 31 31 30 30 30 30 30 29 28 27 26 25 25 24 24 23 23 22 21 21 21 20 20 20 20 20 20 19 19 19 19 19 19 18 18 18 18 18 18 18 18 18 18 18 18 18 18 18
31 31 31 31 31 30 30 30 30 27 27 27 26 25 24 23 23 23 22 21 21 20 20 21 20 20 20 20 20 19 19 19 19 19 18 18 18 18 18 18 18 18 18 18 18 18 18 18 18
31 31 31 31 31 31 31 30 30 28 27 27 26 25 24 23 23 22 22 22 21 21 21 21 21 21 20 20 20 19 19 19 19 19 18 18 19 18 18 18 18 18 18 18 18 18 18 18 18
31 31 31 31 31 31 30 30 30 28 28 27 26 26 25 24 23 23 22 22 21 21 21 21 21 21 20 20 20 19 19 19 19 19 19 18 18 18 18 18 18 18 18 18 18 18 18 18 18
31 31 31 31 31 31 30 30 30 29 28 28 27 26 25 24 24 23 22 22 21 21 21 21 20 21 20 20 19 19 19 19 19 19 19 19 19 18 18 18 18 18 18 18 18 17 17 17 17
31 31 31 31 31 30 30 30 30 29 28 28 27 26 26 25 24 23 22 22 22 21 21 21 21 21 21 20 20 19 19 19 19 19 19 19 18 18 18 18 18 18 18 18 17 17 17 17 17
31 31 31 31 30 31 30 30 30 30 28 27 27 27 26 25 25 23 22 22 21 21 21 21 21 21 20 20 20 19 19 19 19 18 18 19 18 18 18 18 18 18 18 18 18 17 17 17 17
31 31 31 30 30 31 30 30 30 30 29 29 27 26 26 25 24 24 23 22 22 21 21 21 21 21 21 20 20 19 19 19 19 18 18 18 18 18 18 18 18 18 17 17 17 17 17 17 17
31 31 31 31 31 31 31 30 31 30 30 29 28 27 26 25 25 24 23 22 22 22 21 21 21 21 21 20 20 20 19 19 19 18 18 18 18 18 18 18 18 18 17 17 17 17 17 17 17
31 30 30 30 31 30 30 30 30 31 30 30 29 27 26 25 24 24 23 22 22 22 21 21 21 21 20 20 20 20 19 19 19 18 18 18 18 18 18 18 17 17 17 17 17 17 17 17 17
31 30 30 29 30 30 30 30 30 30 30 30 29 27 26 25 25 24 23 22 22 21 21 21 21 21 20 20 20 20 20 19 19 18 18 18 18 18 18 17 17 17 17 17 17 17 17 16 16
31 31 30 29 29 30 30 30 30 30 29 28 28 27 26 25 25 24 23 22 22 21 21 21 20 20 20 20 20 20 19 19 18 18 18 18 18 17 17 17 17 17 17 16 16 16 16 16 16
30 31 32 31 30 30 30 30 30 29 29 28 28 27 26 25 24 24 23 22 22 21 21 21 21 20 20 20 20 20 19 19 18 18 18 18 18 17 17 17 17 17 17 16 16 16 16 16 16
31 31 31 30 28 29 30 30 30 29 29 29 28 27 26 25 24 24 23 22 22 21 21 21 20 20 20 20 19 19 19 19 19 18 18 18 18 17 17 17 17 16 16 16 16 16 16 16 16
30 30 30 30 30 29 29 30 31 29 29 29 28 27 26 25 24 23 23 22 22 21 21 21 20 20 20 19 19 19 19 19 18 18 18 18 17 17 17 17 16 16 16 16 16 16 15 15 15
30 30 30 29 29 29 29 30 30 30 29 28 27 26 25 24 24 23 23 22 21 21 21 20 20 20 20 19 19 19 18 18 18 18 18 17 17 17 17 16 16 16 16 15 15 15 15 15 15
Wind_Speed
11 8 5 4 3 3 10 9 8 8 7 7 6 5 7 7 6 6 6 7 7 8 9 10 8 7 7 8 8 8 8 8 8 9 9 9 9 10 10 11 11 11 11 11 11 11 10 10 10
8 5 4 3 2 7 10 8 9 8 7 6 6 6 7 8 8 7 6 7 7 9 9 9 9 8 8 8 8 8 8 8 8 8 9 9 8 9 9 9 9 9 10 10 10 10 9 9 9
6 5 3 0 6 9 9 8 8 8 6 5 5 6 6 6 7 6 7 8 8 8 9 11 9 8 8 8 8 8 8 8 8 8 8 8 8 8 8 8 8 8 9 9 9 9 8 8 8
4 4 2 2 9 9 7 6 6 7 6 5 5 7 7 6 4 6 9 8 8 8 8 11 8 8 7 7 7 7 7 7 7 7 7 7 7 7 8 8 8 8 8 8 8 8 8 7 8
4 2 1 6 10 8 6 5 4 5 6 5 6 8 8 6 7 9 9 8 8 8 8 11 9 8 7 7 7 7 7 6 6 6 6 5 5 6 7 7 7 7 7 7 7 7 7 7 7
2 1 4 8 9 7 6 5 4 6 7 6 6 8 7 7 8 9 9 8 8 8 8 10 9 7 7 7 7 7 6 6 6 5 5 4 5 5 5 6 6 6 6 7 7 7 6 6 6
2 2 5 7 7 7 6 4 5 5 7 6 5 7 8 8 8 9 9 8 7 7 6 7 8 8 8 6 6 6 6 5 5 5 5 4 4 4 5 5 5 5 5 6 6 6 6 6 6
3 1 4 6 6 7 5 4 4 4 7 6 4 5 7 9 9 9 9 8 7 6 5 6 6 6 7 7 6 5 5 4 4 4 4 3 4 5 5 6 5 5 5 6 7 7 6 6 6
3 0 6 7 6 6 5 5 4 4 7 6 5 6 10 12 10 10 9 8 7 5 4 4 5 5 5 5 7 5 5 4 4 4 4 2 2 3 5 4 4 3 4 5 6 7 7 8 9
3 3 7 6 5 4 4 4 4 4 6 6 7 9 12 12 10 10 9 8 7 6 5 4 4 4 4 4 5 4 4 4 2 2 2 2 2 1 3 6 4 4 4 5 6 7 10 10 7
1 3 5 4 4 3 4 4 3 3 4 5 7 10 12 11 10 8 8 7 7 6 5 5 4 4 3 3 3 2 2 3 2 2 1 1 1 1 2 3 4 5 5 4 6 7 6 5 4
1 2 3 2 2 2 3 4 4 3 5 6 8 11 11 10 9 8 7 7 6 6 6 5 4 4 3 2 2 2 2 2 2 3 1 1 1 0 1 1 1 2 2 2 2 2 3 4 4
2 1 2 2 3 3 4 4 4 4 5 7 9 10 10 9 8 7 6 6 5 6 6 6 5 4 4 3 1 2 2 1 2 2 2 1 1 1 1 2 1 1 1 2 1 1 2 2 3
1 0 1 2 4 4 4 4 3 4 6 8 9 9 9 8 8 7 6 5 5 5 6 6 6 6 5 4 2 1 2 2 1 2 2 1 1 1 1 1 1 1 1 2 1 2 2 1 1
3 3 4 3 3 3 3 3 3 5 7 8 8 8 8 8 7 7 7 6 6 5 6 6 6 6 5 4 3 2 2 2 1 2 2 1 1 1 1 2 2 2 2 2 2 2 2 1 1
5 5 3 4 2 2 4 2 4 6 7 7 8 8 8 8 7 7 7 6 6 5 6 5 5 6 5 4 3 2 1 1 1 1 2 1 1 1 1 1 2 2 1 1 1 1 1 1 0
5 4 2 3 3 2 4 0 4 6 7 6 7 7 8 8 8 7 7 6 6 6 6 6 6 5 5 4 3 3 2 1 1 1 1 1 1 1 1 1 2 1 1 1 1 2 1 0 0
3 4 3 2 3 3 4 2 2 5 6 6 6 7 7 8 8 8 7 6 6 6 7 7 7 6 6 5 4 3 2 2 2 1 1 0 1 1 0 1 2 1 1 1 2 1 1 1 1
5 5 3 2 3 4 5 4 3 5 6 7 7 7 8 8 8 7 8 8 7 7 8 8 7 7 6 4 4 4 3 3 2 2 2 1 0 1 0 1 2 1 1 1 1 0 1 0 1
7 7 4 3 3 4 5 4 3 5 7 7 8 8 8 8 8 8 8 9 9 9 8 8 8 8 7 5 4 3 3 3 3 2 2 2 1 1 1 0 0 0 0 0 0 0 1 0 1
8 8 6 4 4 6 6 6 5 5 6 7 8 8 8 8 9 9 9 9 9 9 9 8 8 8 8 7 5 4 4 3 3 3 3 2 2 1 1 0 1 1 1 1 0 1 1 1 1
7 5 6 6 7 5 6 5 5 6 7 7 8 8 9 9 9 8 8 9 9 9 9 8 8 8 8 8 6 6 5 4 4 3 3 2 2 1 1 1 1 1 1 0 1 0 1 2 1
5 3 6 7 8 7 7 7 4 7 6 6 7 8 8 8 9 8 8 8 8 9 9 8 8 7 8 8 8 7 6 5 3 3 3 2 2 2 1 1 1 1 1 1 1 1 2 1 2
5 5 7 8 9 9 7 8 5 4 4 4 6 7 7 7 8 8 8 7 7 8 8 8 8 7 7 8 8 8 7 5 4 4 3 3 2 2 2 1 1 1 1 0 1 1 1 2 2
10 9 7 8 8 7 4 7 4 1 2 3 4 5 6 7 7 7 8 8 7 8 8 8 8 8 7 7 7 7 7 7 6 5 4 3 3 2 2 1 1 1 0 1 1 1 2 1 1
10 11 9 7 7 5 6 7 2 2 2 3 3 4 5 6 6 7 7 8 7 8 8 8 8 7 7 7 7 6 6 6 5 5 4 4 3 2 2 2 2 1 1 1 1 1 1 0 1
9 10 10 10 10 9 6 5 4 4 4 5 5 5 5 5 6 6 7 7 7 8 8 8 8 8 7 8 7 7 6 5 4 4 4 3 2 2 3 3 2 2 1 1 1 0 1 1 1
9 8 8 9 8 9 7 8 5 5 5 5 5 5 5 5 6 6 6 6 7 7 7 7 8 7 7 7 7 6 6 6 5 4 4 3 3 2 3 3 3 2 2 1 2 2 1 1 1
9 10 9 9 10 10 9 4 1 4 5 5 5 5 5 5 6 6 5 6 6 6 6 7 7 7 7 7 6 6 6 6 6 5 5 4 4 3 3 3 3 3 3 2 2 2 2 2 2
10 10 11 11 10 10 11 5 2 2 3 4 4 4 4 4 5 5 5 6 5 5 6 6 6 7 6 6 6 6 6 6 6 6 5 5 4 4 3 3 3 3 3 2 2 3 2 3 3
Wind_Direction
180 184 208 238 234 89 67 66 66 71 76 74 73 59 59 47 34 75 95 116 117 123 126 128 116 105 94 91 99 106 105 108 114 118 126 128 131 136 138 139 141 144 145 144 143 143 143 142 145
171 183 227 245 18 70 69 65 67 65 80 95 80 62 63 62 57 94 112 120 129 124 126 120 116 109 101 96 98 102 104 105 111 114 121 125 130 136 139 141 144 144 146 146 146 147 147 148 149
177 221 265 315 52 56 66 66 73 85 94 91 80 64 57 65 81 101 113 134 132 122 121 115 119 112 107 101 100 100 104 105 107 113 117 123 130 138 141 142 145 146 149 151 149 150 151 149 150
206 224 233 65 67 57 63 73 85 98 95 76 88 87 77 64 83 106 125 138 129 125 123 118 124 117 110 106 101 99 102 105 109 114 116 120 126 136 141 143 149 152 155 155 153 150 151 150 150
242 261 119 79 70 68 71 78 83 86 86 87 85 92 86 76 95 115 131 135 130 126 121 122 125 123 116 110 107 104 99 101 106 112 116 119 121 134 142 143 147 151 155 158 158 157 155 154 155
249 263 69 72 75 78 81 86 91 87 90 97 98 99 91 105 113 123 129 131 127 125 122 123 130 130 126 118 110 102 103 101 104 104 104 112 118 126 138 142 146 151 156 161 164 163 162 165 170
308 28 66 75 82 85 78 80 83 88 96 93 101 99 109 117 121 128 129 129 125 124 125 125 134 136 136 126 114 111 108 103 104 106 102 108 117 129 141 145 150 156 165 168 170 168 171 177 181
294 308 73 74 79 81 89 90 77 76 92 102 105 98 120 133 136 134 132 131 128 129 130 131 132 132 139 137 130 122 114 111 110 107 110 123 152 158 161 168 157 161 171 177 180 184 183 186 189
263 319 67 60 64 80 98 98 92 96 109 105 87 86 119 136 142 140 137 136 137 137 139 136 131 133 133 130 129 143 141 139 159 148 137 173 163 140 160 126 136 159 174 182 192 196 196 196 195
268 43 54 43 46 75 103 95 113 126 121 114 111 106 126 142 148 149 147 147 148 150 152 142 144 140 139 133 133 148 148 139 154 126 141 162 132 122 124 122 148 168 175 182 188 202 207 215 202
290 25 39 43 55 80 108 108 112 119 108 121 133 134 143 150 156 155 152 154 154 155 154 153 155 152 153 146 138 130 132 130 136 103 106 116 139 143 141 148 162 174 184 189 179 203 211 207 207
258 16 22 42 66 93 97 110 108 88 80 113 133 141 148 157 161 161 157 156 155 161 163 164 159 154 154 146 137 144 139 125 113 113 100 104 99 60 90 118 125 152 150 165 198 202 198 212 212
237 21 51 69 102 109 110 111 114 109 109 123 134 144 153 161 163 162 156 155 160 166 169 166 162 156 159 163 186 146 135 117 110 101 112 94 97 76 90 88 78 88 113 151 169 188 177 193 203
324 344 103 114 113 120 124 117 122 113 134 138 145 152 160 164 166 164 166 170 172 174 170 162 165 162 166 171 178 162 149 129 94 95 83 67 51 51 65 101 91 77 66 64 75 101 119 122 142
232 199 149 130 131 136 167 142 143 138 148 155 158 162 167 173 174 176 178 180 182 181 174 170 169 165 170 178 183 167 156 144 109 95 94 65 60 67 26 62 81 71 70 79 83 89 97 106 125
219 217 192 143 156 168 232 129 126 153 165 167 167 169 176 182 188 188 188 190 188 184 178 179 178 168 166 171 180 165 157 128 111 97 93 78 52 58 38 47 62 59 67 80 80 64 84 91 117
215 227 213 159 169 202 239 189 134 166 181 178 176 179 181 185 196 195 197 193 191 188 186 182 185 177 175 174 176 175 161 146 141 112 87 91 80 101 121 71 52 62 58 53 39 68 7 64 158
248 252 234 221 183 227 241 241 166 181 196 194 188 188 189 192 198 196 200 195 191 188 191 191 188 185 184 182 182 184 171 174 164 136 106 100 118 109 290 112 69 51 67 49 52 52 27 324 262
272 268 260 241 209 239 242 245 213 194 206 203 198 194 197 201 194 193 197 197 193 192 196 197 199 190 191 192 195 188 183 186 176 166 138 157 235 171 287 27 96 37 73 16 10 50 147 314 306
247 249 240 227 224 249 250 248 223 203 211 213 206 203 201 201 197 198 201 200 198 196 199 199 200 195 196 191 196 195 196 192 183 173 149 172 192 224 188 226 195 114 138 148 321 306 321 312 263
243 252 250 241 228 228 243 234 211 200 207 214 215 215 210 207 204 201 204 204 201 200 200 201 201 194 195 191 189 186 186 195 182 184 174 171 185 198 253 201 282 281 265 118 275 288 291 299 266
244 251 252 236 239 241 241 260 206 204 207 209 211 213 215 211 210 206 204 205 204 200 197 198 198 196 194 194 196 195 196 203 199 193 172 170 178 192 207 231 262 280 303 350 276 34 289 279 276
258 246 239 240 248 254 236 263 219 200 214 211 210 211 213 210 209 206 206 203 203 197 193 188 188 191 194 197 198 205 214 214 203 188 168 189 176 198 217 206 212 225 273 342 326 341 306 280 288
211 211 216 232 244 247 241 256 245 211 221 221 213 207 208 206 202 201 200 198 198 196 193 188 184 189 192 198 203 206 211 210 201 189 180 191 187 193 199 203 216 229 259 261 275 286 270 298 306
220 232 231 229 231 244 211 246 256 166 217 235 220 204 202 198 197 193 194 195 197 197 196 193 189 190 191 195 199 201 205 203 201 203 193 207 202 193 179 201 206 250 257 268 276 268 309 311 324
224 241 252 260 261 250 205 241 221 158 207 217 212 199 191 191 192 191 192 194 195 196 195 192 188 190 191 193 196 198 199 205 203 204 208 202 210 201 173 187 189 214 240 243 236 258 259 249 273
224 237 258 266 269 265 241 235 209 189 197 203 201 196 193 190 189 188 187 187 188 191 191 190 187 190 193 194 192 197 198 202 196 189 202 204 198 190 176 185 193 198 217 248 256 266 277 253 256
245 246 243 253 261 263 249 236 232 200 210 210 207 201 191 186 188 190 185 182 185 188 188 189 189 191 191 192 194 188 186 190 191 194 190 193 193 193 189 189 194 197 202 215 248 234 230 236 256
210 226 241 254 260 267 266 251 176 204 214 214 209 200 195 195 193 188 184 177 177 179 179 183 187 189 191 188 187 188 187 187 189 193 193 194 198 194 194 196 202 207 212 216 235 258 250 244 254
233 236 233 243 249 255 268 262 128 185 204 205 201 184 182 190 193 186 178 170 169 170 172 172 183 187 186 182 181 187 191 193 194 193 191 192 197 202 198 201 205 216 215 219 230 247 250 247 249
Height
1509 1510 1510 1512 1507 1500 1501 1499 1496 1498 1499 1503 1505 1504 1505 1507 1509 1518 1520 1519 1519 1520 1520 1520 1520 1520 1520 1520 1520 1520 1520 1520 1521 1521 1522 1523 1524 1525 1526 1527 1528 1529 1531 1532 1534 1536 1537 1538 1540
1511 1511 1513 1510 1502 1504 1505 1499 1499 1501 1504 1506 1506 1507 1507 1511 1515 1518 1519 1520 1521 1522 1522 1522 1521 1522 1522 1522 1522 1522 1522 1522 1523 1523 1524 1525 1526 1526 1528 1528 1530 1531 1532 1534 1535 1537 1538 1539 1541
1512 1512 1513 1504 1501 1505 1506 1500 1501 1504 1506 1507 1508 1509 1511 1516 1519 1520 1521 1521 1523 1524 1524 1523 1523 1524 1524 1524 1524 1524 1524 1524 1524 1525 1526 1526 1527 1528 1529 1530 1531 1532 1533 1535 1536 1537 1539 1540 1541
1514 1514 1511 1504 1504 1502 1501 1501 1503 1504 1507 1508 1509 1511 1516 1520 1521 1521 1521 1523 1525 1525 1526 1525 1525 1525 1525 1526 1526 1526 1526 1526 1526 1527 1527 1528 1529 1529 1530 1531 1532 1533 1534 1536 1537 1538 1539 1541 1542
1514 1512 1505 1503 1503 1501 1501 1503 1504 1504 1506 1509 1510 1513 1518 1522 1522 1523 1523 1525 1526 1527 1528 1527 1527 1527 1527 1527 1527 1527 1527 1527 1528 1528 1529 1530 1530 1531 1532 1532 1533 1534 1535 1536 1537 1539 1540 1541 1542
1514 1508 1505 1508 1505 1502 1502 1505 1505 1505 1508 1511 1512 1514 1520 1523 1524 1525 1526 1527 1528 1529 1529 1529 1528 1529 1529 1529 1529 1529 1529 1529 1530 1530 1530 1531 1531 1532 1533 1534 1534 1535 1536 1537 1538 1539 1540 1541 1543
1513 1505 1505 1505 1505 1503 1504 1505 1505 1506 1509 1512 1514 1515 1521 1524 1525 1526 1527 1528 1529 1530 1531 1531 1531 1531 1531 1531 1531 1531 1531 1531 1531 1531 1531 1532 1532 1533 1533 1534 1535 1535 1536 1537 1538 1539 1540 1541 1542
1513 1506 1502 1502 1504 1504 1505 1506 1508 1508 1511 1515 1515 1516 1521 1525 1526 1527 1529 1530 1530 1531 1532 1532 1533 1533 1533 1533 1532 1532 1533 1533 1533 1533 1533 1533 1533 1534 1534 1535 1535 1535 1536 1537 1537 1538 1540 1541 1542
1513 1505 1503 1502 1502 1503 1505 1506 1509 1511 1513 1515 1517 1518 1521 1524 1526 1528 1529 1530 1531 1532 1533 1533 1534 1534 1535 1535 1534 1534 1534 1534 1534 1534 1534 1534 1535 1535 1535 1535 1535 1536 1536 1537 1537 1538 1539 1540 1541
1510 1503 1502 1501 1501 1502 1505 1507 1509 1510 1512 1515 1518 1521 1522 1524 1526 1528 1529 1530 1531 1532 1533 1533 1534 1535 1536 1536 1536 1536 1536 1536 1536 1536 1536 1536 1536 1536 1536 1535 1536 1536 1536 1536 1536 1537 1538 1539 1541
1507 1503 1502 1503 1504 1505 1506 1507 1509 1509 1510 1514 1517 1521 1523 1525 1527 1528 1530 1531 1532 1532 1533 1533 1534 1535 1536 1537 1537 1537 1538 1537 1537 1537 1536 1536 1537 1537 1537 1537 1536 1536 1537 1537 1536 1537 1538 1539 1540
1506 1505 1505 1505 1506 1506 1506 1508 1509 1510 1513 1515 1518 1521 1523 1525 1527 1528 1530 1531 1532 1532 1533 1533 1534 1535 1536 1537 1538 1538 1538 1538 1538 1537 1537 1537 1537 1537 1537 1537 1537 1537 1537 1537 1537 1537 1538 1538 1539
1505 1505 1506 1506 1506 1507 1508 1508 1510 1512 1515 1517 1519 1522 1524 1525 1527 1529 1530 1531 1531 1532 1532 1533 1534 1535 1535 1536 1537 1539 1539 1539 1539 1538 1538 1537 1538 1537 1537 1537 1536 1537 1537 1537 1537 1537 1537 1537 1537
1505 1505 1505 1506 1506 1507 1507 1508 1510 1513 1516 1518 1520 1522 1524 1526 1527 1529 1530 1531 1531 1531 1532 1533 1534 1535 1535 1536 1537 1538 1539 1539 1539 1539 1538 1538 1538 1538 1537 1537 1537 1537 1537 1537 1537 1537 1537 1537 1537
1506 1504 1503 1504 1505 1506 1507 1508 1509 1513 1515 1517 1520 1522 1524 1525 1527 1528 1529 1530 1531 1531 1532 1533 1534 1535 1536 1537 1538 1539 1539 1540 1540 1539 1539 1538 1538 1538 1538 1538 1538 1537 1537 1537 1537 1537 1537 1537 1537
1501 1500 1502 1502 1504 1505 1507 1510 1508 1512 1514 1516 1518 1521 1523 1525 1526 1528 1529 1530 1531 1531 1531 1533 1534 1535 1536 1537 1537 1539 1539 1539 1540 1540 1539 1538 1538 1538 1538 1538 1538 1538 1538 1537 1537 1537 1537 1537 1537
1498 1502 1503 1502 1502 1502 1503 1505 1507 1511 1513 1515 1517 1519 1521 1523 1525 1526 1527 1529 1530 1530 1531 1532 1533 1534 1535 1536 1537 1538 1538 1539 1539 1539 1539 1538 1538 1538 1538 1538 1538 1538 1538 1537 1537 1537 1537 1537 1536
1503 1500 1501 1501 1500 1501 1501 1502 1504 1509 1511 1513 1515 1517 1520 1521 1523 1525 1526 1527 1528 1529 1530 1531 1532 1533 1534 1535 1536 1537 1538 1538 1539 1539 1538 1538 1538 1538 1538 1539 1538 1538 1538 1537 1537 1536 1536 1536 1535
1496 1499 1500 1499 1498 1500 1501 1501 1502 1506 1508 1510 1513 1515 1517 1519 1522 1523 1524 1525 1526 1527 1528 1529 1531 1532 1533 1534 1536 1536 1537 1538 1538 1538 1538 1538 1537 1538 1537 1538 1537 1537 1537 1536 1537 1536 1536 1536 1535
1497 1499 1500 1499 1497 1499 1500 1500 1499 1503 1505 1508 1510 1512 1514 1517 1519 1521 1522 1523 1525 1525 1526 1528 1529 1530 1531 1533 1534 1535 1536 1537 1537 1537 1537 1537 1537 1537 1537 1536 1537 1537 1536 1536 1535 1535 1536 1536 1535
1495 1496 1497 1499 1498 1497 1500 1501 1498 1499 1503 1506 1508 1510 1512 1514 1516 1518 1520 1521 1522 1523 1524 1526 1527 1528 1529 1531 1532 1534 1534 1535 1536 1536 1536 1536 1536 1536 1536 1536 1536 1536 1536 1536 1535 1534 1535 1535 1535
1496 1491 1494 1497 1500 1498 1499 1504 1497 1495 1498 1501 1504 1507 1509 1511 1513 1515 1517 1518 1520 1521 1522 1523 1525 1526 1527 1529 1530 1532 1533 1534 1534 1535 1535 1535 1535 1535 1535 1535 1535 1535 1535 1535 1535 1534 1534 1534 1535
1493 1491 1493 1494 1496 1498 1496 1500 1494 1491 1495 1496 1500 1503 1505 1508 1510 1512 1514 1515 1517 1519 1520 1521 1522 1523 1525 1527 1528 1529 1531 1532 1533 1533 1533 1534 1534 1534 1534 1534 1533 1533 1534 1534 1533 1533 1533 1534 1534
1491 1493 1494 1493 1492 1505 1497 1500 1497 1487 1491 1492 1495 1500 1503 1505 1507 1510 1512 1513 1515 1516 1518 1519 1520 1521 1522 1524 1526 1527 1528 1529 1530 1531 1532 1533 1533 1533 1533 1533 1532 1532 1533 1532 1532 1532 1532 1532 1532
1490 1495 1503 1507 1506 1502 1492 1497 1493 1486 1488 1491 1494 1497 1500 1503 1505 1507 1509 1510 1512 1513 1515 1517 1518 1519 1520 1521 1523 1524 1526 1527 1528 1529 1530 1531 1532 1532 1531 1532 1531 1531 1531 1531 1531 1531 1531 1531 1530
1487 1488 1503 1513 1509 1497 1493 1495 1487 1486 1490 1492 1494 1496 1498 1501 1502 1504 1506 1508 1509 1511 1512 1514 1515 1516 1518 1519 1520 1522 1523 1525 1526 1527 1528 1529 1530 1530 1530 1530 1530 1530 1530 1530 1530 1530 1530 1529 1529
1487 1486 1480 1489 1492 1498 1491 1486 1483 1485 1488 1490 1492 1494 1496 1499 1501 1503 1504 1506 1507 1508 1510 1512 1513 1514 1515 1517 1519 1520 1521 1522 1524 1525 1526 1527 1527 1528 1528 1528 1528 1528 1528 1528 1528 1528 1528 1528 1528
1481 1480 1484 1491 1506 1508 1496 1490 1486 1485 1486 1487 1489 1492 1495 1497 1499 1501 1502 1504 1505 1506 1508 1510 1511 1512 1514 1515 1516 1518 1519 1520 1522 1523 1524 1525 1525 1526 1526 1526 1526 1527 1527 1527 1527 1527 1526 1526 1526
1484 1485 1485 1485 1487 1500 1503 1491 1475 1480 1483 1485 1488 1491 1493 1495 1497 1499 1501 1502 1504 1505 1506 1508 1509 1510 1512 1513 1514 1516 1517 1518 1520 1521 1522 1523 1523 1524 1524 1524 1524 1525 1525 1524 1525 1525 1525 1525 1524
1476 1477 1481 1491 1492 1488 1492 1489 1474 1478 1481 1484 1487 1490 1493 1494 1496 1498 1499 1501 1502 1504 1505 1506 1507 1509 1510 1511 1512 1513 1515 1516 1517 1519 1519 1520 1521 1521 1521 1522 1522 1523 1523 1523 1523 1523 1523 1523 1522